Regional Weather Roundup
Issued by NWS

Home | Current Version | Previous Version | Text Only | Print | Product List | Glossary Off
Versions: 1 2 3 4 5 6 7 8 9 10 11 12 13 14 15 16 17 18 19 20 21 22 23 24 25 26 27 28 29 30 31 32 33 34 35 36 37 38 39 40 41 42 43 44 45 46 47 48 49 50

096
ASUS44 KLIX 262301
RWRLA
LOUISIANA WEATHER ROUNDUP
NATIONAL WEATHER SERVICE NEW ORLEANS LA
500 PM CST THU FEB 26 2015

NOTE: "FAIR" INDICATES FEW OR NO CLOUDS BELOW 12,000 FEET WITH NO
      SIGNIFICANT WEATHER AND/OR OBSTRUCTIONS TO VISIBILITY.
      SKY/WX - SKY CONDITION AND SIGNIFICANT WEATHER.
      TMP - AIR TEMPERATURE.    DP   - DEWPOINT TEMPERATURE.
      RH  - RELATIVE HUMIDITY.  PRES - PRESSURE.
      HX  - HEAT INDEX.         WCI  - WIND CHILL INDEX.

*  THESE STATIONS ARE NOT NWS OR FAA STATIONS AND ARE NOT UNDER
   NWS QUALITY CONTROL.

LAZ040-048-061>063-065-066-069-270000-
SOUTHEAST LOUISIANA

CITY           SKY/WX    TMP DP  RH WIND       PRES   REMARKS
N.O. AUDUBON     N/A     49  39  68 MISG        N/A
N.O. INTL ARPT PTSUNNY   48  34  58 N14       30.12R
N.O. LAKEFRONT PTSUNNY   50  35  56 N16       30.13R
SLIDELL        MOSUNNY   48  33  56 N13       30.11R
BATON ROUGE    MOSUNNY   51  32  48 N9        30.14R
BOOTHVILLE     CLOUDY    47  39  74 N8        30.10R
BELLE CHASSE   PTSUNNY   48  33  56 N9G20     30.11R
BOGALUSA*        N/A     51  33  49 NE8       30.13R
GALLIANO*      CLEAR     49  38  64 MISG      30.12R
NEW ROADS*     NOT AVBL
GONZALES*      NOT AVBL
HAMMOND*       NOT AVBL
HOUMA*         NOT AVBL
PORT FOURCHON* CLOUDY    46  37  71 N14G24    30.14R

$$

LAZ041-044-053-054-270000-
SOUTHWEST LOUISIANA

CITY           SKY/WX    TMP DP  RH WIND       PRES   REMARKS
LAKE CHARLES   PTSUNNY   53  34  48 N14       30.14R
LAFAYETTE      PTSUNNY   49  35  58 N14       30.15R
PATTERSON      PTSUNNY   48  34  57 N15       30.13R
SALT POINT       N/A     50  34  54 N9        30.12R
NEW IBERIA     PTSUNNY   51  33  50 N18       30.15R
CHENAULT AIRPK NOT AVBL

$$

LAZ027-028-270000-
CENTRAL LOUISIANA

CITY           SKY/WX    TMP DP  RH WIND       PRES   REMARKS
FORT POLK      MOSUNNY   47  34  60 N12G21    30.17R
ALEXANDRIA INT CLOUDY    45  34  65 N12       30.19R
ALEXANDRIA     CLOUDY    46  34  62 N8        30.20R

$$

LAZ001-002-270000-
NORTHWEST LOUISIANA

CITY           SKY/WX    TMP DP  RH WIND       PRES   REMARKS
SHREVEPORT     CLOUDY    37  31  78 N13       30.26R WCI  29
BARKSDALE AFB  NOT AVBL
DTN SHREVEPORT CLOUDY    37  29  72 N9        30.27R WCI  30

$$

LAZ014-016-270000-
NORTHEAST LOUISIANA

CITY           SKY/WX    TMP DP  RH WIND       PRES   REMARKS
MONROE         CLOUDY    38  33  82 NE9       30.26R WCI  31
TALLULAH       CLOUDY    36  31  82 N14       30.24R WCI  27

$$




USA.gov is the U.S. government's official web portal to all federal, state and local government web resources and services.